Date,Time,Wetness (Wet Dry or Ice),Wind Speed (m/s),Temperature (C),Humidity (%),Pressure (mb),Radiation (W/m^2)
2019-03-04,23:50:00,DRY,3.30,8.20,10.3,776.00,1.0
2019-03-04,23:55:00,DRY,3.50,8.50,10.5,776.00,1.0
2019-03-05,00:00:00,DRY,3.60,8.43,11.0,776.00,1.5
2019-03-05,00:05:00,DRY,3.60,8.20,10.5,776.00,1.1
2019-03-05,00:10:00,DRY,3.90,8.23,9.7,776.00,0.9
2019-03-05,00:15:00,DRY,2.70,8.30,9.0,776.00,1.5
2019-03-05,00:20:00,DRY,4.13,8.43,10.3,776.00,1.3
2019-03-05,00:25:00,DRY,3.15,8.65,11.0,776.00,1.3
2019-03-05,00:30:00,DRY,2.40,8.53,11.0,776.00,0.7
2019-03-05,00:35:00,DRY,2.95,8.45,10.5,776.00,1.0
2019-03-05,00:40:00,DRY,2.83,7.93,13.3,776.00,0.9
2019-03-05,00:45:00,DRY,2.85,7.85,15.0,776.00,1.6
2019-03-05,00:50:00,DRY,4.37,7.73,14.7,776.00,1.1
2019-03-05,00:55:00,DRY,4.30,7.85,13.0,776.00,1.1
2019-03-05,01:00:00,DRY,4.53,8.17,11.0,776.00,0.9
2019-03-05,01:05:00,DRY,5.00,8.30,11.0,776.00,1.1
2019-03-05,01:10:00,DRY,5.07,8.27,11.0,775.67,1.2
2019-03-05,01:15:00,DRY,3.95,8.45,10.5,775.50,1.1
2019-03-05,01:20:00,DRY,4.67,8.17,11.0,775.00,2.3
2019-03-05,01:25:00,DRY,4.50,8.30,9.5,775.50,0.9
2019-03-05,01:30:00,DRY,5.17,8.50,9.7,775.00,0.9
2019-03-05,01:35:00,DRY,5.25,8.60,9.0,775.00,1.0
2019-03-05,01:40:00,DRY,5.17,8.77,9.0,775.00,0.9
2019-03-05,01:45:00,DRY,5.20,8.75,8.5,775.00,0.9
2019-03-05,01:50:00,DRY,5.17,8.60,9.0,775.00,0.9
2019-03-05,01:55:00,DRY,5.70,8.70,9.0,775.00,1.1
2019-03-05,02:00:00,DRY,5.10,8.57,9.0,775.00,1.3
2019-03-05,02:05:00,DRY,5.25,8.50,9.0,775.00,1.1
2019-03-05,02:10:00,DRY,5.43,8.47,9.0,775.00,1.3
2019-03-05,02:15:00,DRY,5.00,8.45,9.0,775.00,1.1
2019-03-05,02:20:00,DRY,5.90,8.63,9.3,775.00,1.1
2019-03-05,02:25:00,DRY,5.05,8.45,9.0,775.00,1.0
2019-03-05,02:30:00,DRY,4.93,8.50,9.0,775.00,1.0
2019-03-05,02:35:00,DRY,5.00,8.55,9.0,775.00,1.2
2019-03-05,02:40:00,DRY,5.30,8.37,9.7,775.00,1.2
2019-03-05,02:45:00,DRY,6.10,8.45,9.5,775.00,1.0
2019-03-05,02:50:00,DRY,5.17,8.83,9.0,775.00,1.4
2019-03-05,02:55:00,DRY,5.15,8.55,9.5,775.00,1.7
2019-03-05,03:00:00,DRY,6.13,8.60,9.7,774.00,1.0
2019-03-05,03:05:00,DRY,5.45,8.45,10.0,774.00,1.2
2019-03-05,03:10:00,DRY,5.37,8.70,10.0,774.00,1.1
2019-03-05,03:15:00,DRY,5.00,8.65,10.0,774.00,1.3
2019-03-05,03:20:00,DRY,4.30,8.77,10.0,774.00,1.1
2019-03-05,03:25:00,DRY,4.30,9.00,10.0,774.00,1.0
2019-03-05,03:30:00,DRY,5.77,8.80,10.0,774.00,1.1
2019-03-05,03:35:00,DRY,4.30,8.75,10.0,774.00,1.0
2019-03-05,03:40:00,DRY,5.53,9.03,9.3,774.00,1.0
2019-03-05,03:45:00,DRY,3.85,9.05,9.5,774.00,0.7
2019-03-05,03:50:00,DRY,4.03,9.00,9.7,774.00,0.6
2019-03-05,03:55:00,DRY,3.90,9.00,10.0,774.00,1.0
2019-03-05,04:00:00,DRY,2.97,9.10,9.7,774.00,1.0
2019-03-05,04:05:00,DRY,3.25,9.30,9.0,774.00,1.5
2019-03-05,04:10:00,DRY,3.80,9.20,9.7,774.00,1.2
2019-03-05,04:15:00,DRY,3.75,9.25,9.5,774.00,1.2
2019-03-05,04:20:00,DRY,3.47,9.03,9.7,774.00,0.8
2019-03-05,04:25:00,DRY,3.50,9.20,9.5,774.00,1.1
2019-03-05,04:30:00,DRY,3.43,9.23,10.0,774.00,0.8
2019-03-05,04:35:00,DRY,3.75,9.10,9.5,774.00,0.8
2019-03-05,04:40:00,DRY,3.97,8.97,9.3,774.00,1.0
2019-03-05,04:45:00,DRY,4.85,8.70,9.5,774.00,1.2
2019-03-05,04:50:00,DRY,5.17,8.53,10.0,774.00,1.2
2019-03-05,04:55:00,DRY,4.10,9.05,9.5,774.00,1.6
2019-03-05,05:00:00,DRY,5.50,8.57,9.7,774.00,2.0
2019-03-05,05:05:00,DRY,5.50,8.40,10.0,774.00,1.3
2019-03-05,05:10:00,DRY,5.43,8.17,10.0,774.00,1.0
2019-03-05,05:15:00,DRY,4.75,8.00,10.0,774.00,1.2
2019-03-05,05:20:00,DRY,5.47,8.10,10.0,773.00,0.7
2019-03-05,05:25:00,DRY,5.35,8.15,10.0,773.00,0.9
2019-03-05,05:30:00,DRY,5.40,8.03,9.7,773.33,0.8
2019-03-05,05:35:00,DRY,6.15,7.95,10.0,773.00,0.8
2019-03-05,05:40:00,DRY,6.10,7.63,10.0,773.00,1.1
2019-03-05,05:45:00,DRY,8.65,7.35,11.5,773.00,1.3
2019-03-05,05:50:00,DRY,7.27,7.00,14.0,773.00,1.3
2019-03-05,05:55:00,DRY,6.10,7.00,13.0,773.00,1.1
2019-03-05,06:00:00,DRY,5.80,7.27,12.3,773.00,1.3
2019-03-05,06:05:00,DRY,8.90,7.20,12.5,773.00,1.1
2019-03-05,06:10:00,DRY,6.43,6.93,13.7,773.00,1.1
2019-03-05,06:15:00,DRY,7.15,6.45,15.5,773.00,1.0
2019-03-05,06:20:00,DRY,9.27,6.60,14.3,773.00,1.2
2019-03-05,06:25:00,DRY,6.45,6.85,13.5,773.00,1.3
2019-03-05,06:30:00,DRY,8.73,6.90,13.7,773.00,1.3
2019-03-05,06:35:00,DRY,7.85,7.05,13.5,773.00,1.8
2019-03-05,06:40:00,DRY,6.07,7.20,13.0,773.00,1.2
2019-03-05,06:45:00,DRY,6.15,7.20,13.0,773.00,1.2
2019-03-05,06:50:00,DRY,7.00,6.97,13.3,773.00,1.2
2019-03-05,06:55:00,DRY,6.65,7.20,13.0,773.00,1.0
2019-03-05,07:00:00,DRY,6.70,7.53,12.0,773.00,1.2
2019-03-05,07:05:00,DRY,8.70,7.80,11.0,773.00,1.0
2019-03-05,07:10:00,DRY,6.63,7.63,11.7,773.33,1.4
2019-03-05,07:15:00,DRY,5.35,7.65,11.5,773.00,1.5
2019-03-05,07:20:00,DRY,7.10,7.87,10.7,773.33,2.1
2019-03-05,07:25:00,DRY,6.15,7.45,12.0,774.00,3.4
2019-03-05,07:30:00,DRY,7.10,7.35,12.0,773.50,4.5
2019-03-05,07:35:00,DRY,6.00,7.20,12.5,774.00,8.0
2019-03-05,07:40:00,DRY,7.07,7.17,12.7,773.67,10.7
2019-03-05,07:45:00,DRY,5.55,7.40,12.0,774.00,12.9
2019-03-05,07:50:00,DRY,8.10,7.43,12.7,774.00,15.0
2019-03-05,07:55:00,DRY,5.80,7.45,12.5,774.00,16.6
2019-03-05,08:00:00,DRY,6.13,7.80,12.0,774.00,18.5
2019-03-05,08:05:00,DRY,6.00,8.00,11.5,774.00,20.3
2019-03-05,08:10:00,DRY,5.10,8.00,12.0,774.00,21.6
2019-03-05,08:15:00,DRY,5.15,7.95,12.0,774.00,22.8
2019-03-05,08:20:00,DRY,6.10,7.93,12.0,773.67,25.0
2019-03-05,08:25:00,DRY,7.75,8.10,12.5,773.50,26.4
2019-03-05,08:30:00,DRY,7.77,8.20,12.3,773.00,28.2
2019-03-05,08:35:00,DRY,5.95,8.00,13.5,773.50,153.0
2019-03-05,08:40:00,DRY,7.93,8.10,13.3,773.67,281.4
2019-03-05,08:45:00,DRY,7.15,8.20,13.5,774.00,302.7
2019-03-05,08:50:00,DRY,4.47,8.33,13.7,774.00,326.2
2019-03-05,08:55:00,DRY,4.05,8.15,15.0,774.00,346.8
2019-03-05,09:00:00,DRY,5.33,7.70,16.3,774.00,368.7
2019-03-05,09:05:00,DRY,6.10,7.85,17.5,774.00,389.0
2019-03-05,09:10:00,DRY,7.53,7.87,18.0,774.00,410.2
2019-03-05,09:15:00,DRY,4.80,8.15,16.0,774.00,431.6
2019-03-05,09:20:00,DRY,4.30,7.87,19.3,774.00,451.2
2019-03-05,09:25:00,DRY,4.20,8.40,16.0,774.00,471.0
2019-03-05,09:30:00,DRY,3.63,8.27,18.0,774.00,490.4
2019-03-05,09:35:00,DRY,3.80,7.95,19.5,774.00,510.4
2019-03-05,09:40:00,DRY,3.47,8.30,19.0,774.00,530.2
2019-03-05,09:45:00,DRY,4.90,8.50,18.5,774.00,549.5
2019-03-05,09:50:00,DRY,4.70,7.87,22.3,774.00,567.9
2019-03-05,09:55:00,DRY,5.15,7.55,24.0,774.00,586.5
2019-03-05,10:00:00,DRY,4.53,7.93,22.0,774.00,605.0
2019-03-05,10:05:00,DRY,3.95,7.75,24.0,774.00,626.2
2019-03-05,10:10:00,DRY,4.93,7.60,25.3,774.00,634.4
2019-03-05,10:15:00,DRY,4.05,7.35,27.0,774.00,648.5
2019-03-05,10:20:00,DRY,5.03,7.27,26.3,774.00,670.4
2019-03-05,10:25:00,DRY,5.45,7.15,29.0,774.00,679.6
2019-03-05,10:30:00,DRY,5.70,7.23,28.3,774.00,697.7
2019-03-05,10:35:00,DRY,6.25,7.10,29.0,774.00,721.8
2019-03-05,10:40:00,DRY,7.03,7.27,29.7,774.00,736.1
2019-03-05,10:45:00,DRY,6.70,7.45,27.5,774.00,750.2
2019-03-05,10:50:00,DRY,4.67,7.03,31.7,774.00,762.2
2019-03-05,10:55:00,DRY,6.05,7.55,27.5,774.00,774.0
2019-03-05,11:00:00,DRY,6.00,7.20,31.7,774.00,788.7
2019-03-05,11:05:00,DRY,6.80,7.60,30.0,774.00,803.5
2019-03-05,11:10:00,DRY,6.47,7.70,29.3,774.00,811.9
2019-03-05,11:15:00,DRY,7.65,7.90,30.0,774.00,826.6
2019-03-05,11:20:00,DRY,5.43,8.00,32.0,774.00,841.0
2019-03-05,11:25:00,DRY,7.00,8.25,25.5,774.00,843.0
2019-03-05,11:30:00,DRY,5.53,8.10,28.3,774.00,862.2
2019-03-05,11:35:00,DRY,3.65,8.25,28.0,774.00,871.7
2019-03-05,11:40:00,DRY,6.37,8.20,32.3,774.00,880.5
2019-03-05,11:45:00,DRY,6.00,8.15,33.0,774.00,887.9
2019-03-05,11:50:00,DRY,5.73,8.23,32.3,774.00,901.2
2019-03-05,11:55:00,DRY,5.75,8.55,32.0,774.00,907.2
2019-03-05,12:00:00,DRY,3.03,8.67,38.3,774.00,915.2
2019-03-05,12:05:00,DRY,3.85,8.75,33.0,774.00,923.5
2019-03-05,12:10:00,DRY,3.77,8.47,37.3,774.00,923.0
2019-03-05,12:15:00,DRY,4.95,7.95,47.0,774.00,940.3
2019-03-05,12:20:00,DRY,5.10,8.33,37.7,774.00,914.4
2019-03-05,12:25:00,DRY,2.90,8.45,44.0,774.00,945.3
2019-03-05,12:30:00,DRY,4.77,8.33,45.3,774.00,951.5
2019-03-05,12:35:00,DRY,4.95,7.90,42.5,774.00,958.4
2019-03-05,12:40:00,DRY,5.13,8.33,43.3,774.00,970.0
2019-03-05,12:45:00,DRY,4.25,8.45,37.0,774.00,968.5
2019-03-05,12:50:00,DRY,6.10,8.40,45.3,774.00,957.8
2019-03-05,12:55:00,DRY,5.40,8.75,31.0,774.00,970.1
2019-03-05,13:00:00,DRY,4.67,8.47,47.3,774.00,974.4
2019-03-05,13:05:00,DRY,5.15,8.90,40.5,774.00,974.9
2019-03-05,13:10:00,DRY,6.10,8.77,49.7,773.33,976.9
2019-03-05,13:15:00,DRY,6.10,8.55,50.0,773.00,977.4
2019-03-05,13:20:00,DRY,9.10,8.30,41.3,773.00,976.1
2019-03-05,13:25:00,DRY,5.60,9.30,29.0,773.00,975.8
2019-03-05,13:30:00,DRY,7.00,8.60,40.0,773.00,976.6
2019-03-05,13:35:00,DRY,6.10,9.40,35.0,773.00,974.6
2019-03-05,13:40:00,DRY,7.57,9.17,32.7,773.00,973.8
2019-03-05,13:45:00,DRY,5.05,9.30,33.5,773.00,972.4
2019-03-05,13:50:00,DRY,5.80,9.43,32.7,773.00,971.8
2019-03-05,13:55:00,DRY,6.80,9.15,33.0,773.00,968.0
2019-03-05,14:00:00,DRY,7.03,9.97,27.0,773.00,968.1
2019-03-05,14:05:00,DRY,9.20,9.45,25.0,773.00,961.7
2019-03-05,14:10:00,DRY,8.93,8.83,28.7,773.00,937.5
2019-03-05,14:15:00,DRY,8.35,9.25,22.0,772.50,949.8
2019-03-05,14:20:00,DRY,5.97,9.37,31.3,773.00,946.3
2019-03-05,14:25:00,DRY,5.85,9.00,34.0,773.00,946.9
2019-03-05,14:30:00,DRY,5.43,9.30,29.7,772.67,927.0
2019-03-05,14:35:00,DRY,5.95,9.10,43.5,772.50,911.0
2019-03-05,14:40:00,DRY,7.27,8.90,36.3,772.33,917.9
2019-03-05,14:45:00,DRY,5.65,8.80,44.0,772.00,914.2
2019-03-05,14:50:00,DRY,4.80,9.00,37.7,772.00,915.7
2019-03-05,14:55:00,DRY,6.00,9.65,32.5,772.00,918.7
2019-03-05,15:00:00,DRY,7.30,9.73,31.3,772.00,898.7
2019-03-05,15:05:00,DRY,6.75,9.50,41.0,772.00,854.2
2019-03-05,15:10:00,DRY,6.50,10.13,21.0,772.00,866.4
2019-03-05,15:15:00,DRY,5.35,10.50,20.0,772.00,868.5
2019-03-05,15:20:00,DRY,5.83,9.93,29.7,772.00,811.4
2019-03-05,15:25:00,DRY,4.85,9.90,25.5,772.00,810.0
2019-03-05,15:30:00,DRY,5.57,9.67,25.7,772.00,655.8
2019-03-05,15:35:00,DRY,4.95,10.30,20.0,772.00,860.9
2019-03-05,15:40:00,DRY,6.23,10.53,19.3,772.00,806.1
2019-03-05,15:45:00,DRY,5.35,10.10,31.0,772.00,825.9
2019-03-05,15:50:00,DRY,4.77,10.23,24.3,772.00,671.5
2019-03-05,15:55:00,DRY,6.10,10.55,15.0,772.00,596.1
2019-03-05,16:00:00,DRY,4.27,10.83,14.0,772.00,609.3
2019-03-05,16:05:00,DRY,4.20,11.35,11.0,772.00,685.6
2019-03-05,16:10:00,DRY,4.43,11.90,8.7,772.00,714.0
2019-03-05,16:15:00,DRY,3.15,12.20,7.5,772.00,597.1
2019-03-05,16:20:00,DRY,3.67,11.40,5.7,772.00,590.3
2019-03-05,16:25:00,DRY,4.80,10.75,5.0,772.00,685.3
2019-03-05,16:30:00,DRY,3.67,10.97,5.3,772.00,663.7
2019-03-05,16:35:00,DRY,6.70,10.90,7.0,772.00,656.9
2019-03-05,16:40:00,DRY,6.17,10.10,7.3,772.00,440.1
2019-03-05,16:45:00,DRY,4.65,9.45,9.0,772.00,495.8
2019-03-05,16:50:00,DRY,6.77,9.63,10.0,772.00,675.4
2019-03-05,16:55:00,DRY,6.60,8.90,12.5,772.00,598.0
2019-03-05,17:00:00,DRY,6.03,8.83,12.7,772.00,552.0
2019-03-05,17:05:00,DRY,5.85,8.75,13.0,772.00,553.1
2019-03-05,17:10:00,DRY,6.60,8.90,12.3,772.00,573.5
2019-03-05,17:15:00,DRY,6.70,9.15,12.0,772.00,533.8
2019-03-05,17:20:00,DRY,5.17,9.37,11.3,772.00,497.4
2019-03-05,17:25:00,DRY,4.55,8.65,14.5,772.00,479.9
2019-03-05,17:30:00,DRY,6.83,8.00,15.3,772.00,411.8
2019-03-05,17:35:00,DRY,7.40,8.40,12.5,772.00,405.8
2019-03-05,17:40:00,DRY,4.77,8.30,14.7,772.00,361.0
2019-03-05,17:45:00,DRY,4.85,8.05,13.5,772.00,279.4
2019-03-05,17:50:00,DRY,5.57,7.47,15.0,772.00,292.7
2019-03-05,17:55:00,DRY,7.65,6.90,16.5,772.00,256.2
2019-03-05,18:00:00,DRY,5.10,7.23,14.0,772.00,274.6
2019-03-05,18:05:00,DRY,6.35,7.25,13.5,772.00,219.4
2019-03-05,18:10:00,DRY,5.77,7.17,15.3,772.00,198.9
2019-03-05,18:15:00,DRY,5.35,6.85,18.5,772.00,189.9
2019-03-05,18:20:00,DRY,5.93,7.10,14.3,772.00,157.0
2019-03-05,18:25:00,DRY,6.80,6.55,16.5,772.00,121.6
2019-03-05,18:30:00,DRY,6.37,6.53,14.7,772.00,81.4
2019-03-05,18:35:00,DRY,5.05,6.20,15.0,772.00,66.3
2019-03-05,18:40:00,DRY,5.33,5.97,14.7,772.00,62.2
2019-03-05,18:45:00,DRY,4.50,6.00,14.5,772.00,49.2
2019-03-05,18:50:00,DRY,5.67,6.13,13.0,772.00,44.4
2019-03-05,18:55:00,DRY,6.95,5.85,13.5,771.50,36.8
2019-03-05,19:00:00,DRY,3.90,5.77,12.3,772.00,27.5
2019-03-05,19:05:00,DRY,6.25,5.30,14.0,772.00,18.3
2019-03-05,19:10:00,DRY,6.07,5.10,14.3,772.00,11.0
2019-03-05,19:15:00,DRY,6.10,5.05,12.5,772.00,10.1
2019-03-05,19:20:00,DRY,5.63,5.13,9.3,772.00,7.0
2019-03-05,19:25:00,DRY,3.85,5.00,9.0,772.00,3.4
2019-03-05,19:30:00,DRY,5.83,4.83,8.0,772.00,1.8
2019-03-05,19:35:00,DRY,5.35,4.95,6.5,772.00,1.1
2019-03-05,19:40:00,DRY,5.10,4.97,5.7,772.00,1.1
2019-03-05,19:45:00,DRY,5.70,4.80,6.0,772.00,1.5
2019-03-05,19:50:00,DRY,5.93,4.90,5.3,772.00,1.9
2019-03-05,19:55:00,DRY,5.00,4.90,5.0,772.00,1.4
2019-03-05,20:00:00,DRY,3.97,4.60,6.0,772.00,1.1
2019-03-05,20:05:00,DRY,4.70,4.50,8.0,772.00,1.5
2019-03-05,20:10:00,DRY,6.80,5.17,8.3,771.00,0.7
2019-03-05,20:15:00,DRY,3.40,5.55,10.0,771.00,1.4
2019-03-05,20:20:00,DRY,4.57,5.57,18.0,771.00,1.2
2019-03-05,20:25:00,DRY,5.20,6.15,52.5,771.00,1.1
2019-03-05,20:30:00,DRY,4.15,6.15,34.0,771.50,0.8
2019-03-05,20:35:00,DRY,3.75,5.50,20.0,771.00,1.8
2019-03-05,20:40:00,DRY,5.40,5.07,33.3,771.33,1.3
2019-03-05,20:45:00,DRY,4.80,0.90,78.5,772.00,2.4
2019-03-05,20:50:00,DRY,6.13,0.73,60.7,772.00,1.3
2019-03-05,20:55:00,DRY,6.90,1.60,40.5,772.00,1.2
2019-03-05,21:00:00,DRY,5.17,2.57,27.0,772.00,1.2
2019-03-05,21:05:00,DRY,5.40,3.45,23.5,772.00,2.0
2019-03-05,21:10:00,DRY,6.40,3.73,23.0,772.00,2.2
2019-03-05,21:15:00,DRY,3.10,3.30,31.0,773.00,1.1
2019-03-05,21:20:00,DRY,4.47,3.60,38.3,772.00,1.6
2019-03-05,21:25:00,DRY,8.35,3.55,42.0,772.50,1.8
2019-03-05,21:30:00,DRY,6.70,3.37,44.3,772.67,1.0
2019-03-05,21:35:00,DRY,7.25,3.10,48.5,773.00,1.4
2019-03-05,21:40:00,DRY,6.03,2.57,53.3,773.00,1.3
2019-03-05,21:45:00,DRY,4.95,2.55,53.5,772.50,1.4
2019-03-05,21:50:00,DRY,4.53,2.97,49.3,772.67,1.2
2019-03-05,21:55:00,DRY,4.45,3.05,49.0,773.00,1.0
2019-03-05,22:00:00,DRY,4.83,2.97,51.0,773.00,0.8
2019-03-05,22:05:00,DRY,3.05,2.80,53.5,773.00,1.6
2019-03-05,22:10:00,DRY,4.50,2.87,53.7,773.00,1.2
2019-03-05,22:15:00,DRY,3.10,2.30,67.5,773.00,1.6
2019-03-05,22:20:00,WET,3.27,1.40,93.3,773.00,1.0
2019-03-05,22:25:00,WET,3.80,1.70,98.0,773.00,17.1
2019-03-05,22:30:00,WET,5.43,2.00,99.0,772.00,158.6
2019-03-05,22:35:00,WET,3.35,2.10,99.0,773.00,212.9
2019-03-05,22:40:00,WET,7.17,2.10,99.0,772.33,235.9
2019-03-05,22:45:00,WET,4.30,2.20,99.0,772.50,260.8
2019-03-05,22:50:00,WET,3.93,2.23,99.7,772.67,229.6
2019-03-05,22:55:00,WET,3.65,2.20,99.0,772.50,204.1
2019-03-05,23:00:00,WET,3.03,2.10,99.7,772.67,201.7
2019-03-05,23:05:00,WET,3.10,2.00,99.0,772.50,207.4
2019-03-05,23:10:00,WET,3.07,2.57,99.7,773.00,275.7
2019-03-05,23:15:00,WET,3.90,2.50,100.0,772.50,309.6
2019-03-05,23:20:00,WET,1.53,2.23,100.0,772.67,346.5
2019-03-05,23:25:00,WET,3.90,2.30,100.0,772.00,405.2
2019-03-05,23:30:00,WET,3.30,2.17,100.0,772.00,326.8
2019-03-05,23:35:00,WET,3.85,2.00,99.5,772.00,310.6
2019-03-05,23:40:00,WET,4.47,2.43,100.0,772.00,289.4
2019-03-05,23:45:00,WET,2.40,2.60,100.0,772.00,233.9
2019-03-05,23:50:00,WET,5.10,2.53,100.0,772.00,285.6
2019-03-05,23:55:00,WET,6.40,2.40,100.0,772.00,318.1
2019-03-06,00:00:00,WET,4.50,2.03,99.3,772.00,242.8
2019-03-06,00:05:00,WET,5.65,2.45,99.0,772.00,236.0
2019-03-06,00:10:00,WET,4.43,2.70,100.0,772.00,230.9
2019-03-06,00:15:00,WET,5.30,2.50,100.0,772.00,207.9
2019-03-06,00:20:00,WET,2.20,2.77,100.0,772.00,190.4
2019-03-06,00:25:00,WET,2.90,2.90,100.0,772.00,190.0
2019-03-06,00:30:00,WET,3.73,3.07,100.0,772.00,181.8
2019-03-06,00:35:00,WET,4.00,3.05,100.0,772.00,159.1
2019-03-06,00:40:00,WET,2.57,3.07,100.0,772.00,145.1
2019-03-06,00:45:00,WET,2.40,3.10,100.0,772.00,146.8
2019-03-06,00:50:00,WET,3.97,3.20,100.0,772.00,141.0
2019-03-06,00:55:00,WET,4.10,3.20,100.0,772.00,143.2
2019-03-06,01:00:00,WET,3.23,3.20,100.0,772.00,146.7
2019-03-06,01:05:00,WET,5.05,3.20,100.0,772.00,156.1
2019-03-06,01:10:00,WET,3.83,3.20,100.0,772.00,152.5
2019-03-06,01:15:00,WET,3.95,3.25,100.0,771.50,157.7
2019-03-06,01:20:00,WET,6.07,3.40,100.0,771.67,163.3
2019-03-06,01:25:00,WET,3.55,3.45,100.0,772.00,144.6
2019-03-06,01:30:00,WET,2.67,3.43,100.0,771.33,129.8
2019-03-06,01:35:00,WET,5.20,3.40,100.0,771.00,108.2
2019-03-06,01:40:00,WET,2.97,3.57,100.0,771.33,105.8
2019-03-06,01:45:00,WET,4.95,3.60,100.0,771.00,118.2
2019-03-06,01:50:00,WET,5.40,3.50,100.0,771.00,117.7
2019-03-06,01:55:00,WET,3.70,3.50,100.0,771.50,108.8
2019-03-06,02:00:00,WET,2.27,3.43,100.0,772.00,106.5
2019-03-06,02:05:00,WET,3.60,3.30,100.0,771.50,92.7
2019-03-06,02:10:00,WET,5.23,3.30,100.0,771.00,95.1
2019-03-06,02:15:00,WET,4.25,3.20,100.0,772.00,91.8
2019-03-06,02:20:00,WET,7.27,3.23,100.0,771.00,84.0
2019-03-06,02:25:00,WET,4.40,3.35,100.0,771.00,78.8
2019-03-06,02:30:00,WET,4.97,3.37,100.0,771.00,84.1
2019-03-06,02:35:00,WET,6.75,3.40,100.0,771.00,83.4
2019-03-06,02:40:00,WET,6.10,3.53,100.0,771.00,77.5
2019-03-06,02:45:00,WET,5.90,3.50,100.0,771.00,73.7
2019-03-06,02:50:00,WET,4.73,3.27,100.0,771.00,75.7
2019-03-06,02:55:00,WET,5.30,2.85,100.0,771.00,85.7
2019-03-06,03:00:00,WET,3.77,2.33,100.0,771.00,78.6
2019-03-06,03:05:00,WET,3.25,2.15,100.0,771.00,77.9
2019-03-06,03:10:00,WET,6.57,2.27,100.0,771.00,79.1
2019-03-06,03:15:00,WET,2.05,2.10,100.0,771.00,91.1
2019-03-06,03:20:00,DRY,2.90,1.90,100.0,771.00,116.8
2019-03-06,03:25:00,DRY,4.95,1.60,100.0,771.00,128.2
2019-03-06,03:30:00,DRY,5.17,1.40,100.0,771.00,154.9
2019-03-06,03:35:00,DRY,6.60,1.60,100.0,771.00,193.4
2019-03-06,03:40:00,DRY,4.57,1.17,100.0,771.00,165.3
2019-03-06,03:45:00,DRY,3.05,0.85,100.0,771.00,131.8
2019-03-06,03:50:00,DRY,2.80,0.93,100.0,771.00,125.9
2019-03-06,03:55:00,DRY,2.40,0.80,100.0,771.00,118.8
2019-03-06,04:00:00,DRY,3.47,0.73,100.0,771.00,179.5
2019-03-06,04:05:00,DRY,3.35,0.35,100.0,771.00,185.1
2019-03-06,04:10:00,DRY,3.97,-0.07,100.0,771.00,165.9
2019-03-06,04:15:00,DRY,3.55,-0.30,100.0,771.00,151.0
2019-03-06,04:20:00,DRY,6.90,-0.53,100.0,771.00,159.8
2019-03-06,04:25:00,DRY,4.95,-1.00,100.0,771.00,135.1
2019-03-06,04:30:00,DRY,4.80,-0.90,99.0,771.00,131.5
2019-03-06,04:35:00,DRY,7.00,-0.60,99.0,771.00,110.7
2019-03-06,04:40:00,DRY,6.30,-0.70,100.0,770.67,43.0
2019-03-06,04:45:00,DRY,7.35,-0.40,100.0,770.00,21.5
2019-03-06,04:50:00,DRY,7.43,-0.23,100.0,770.00,104.8
2019-03-06,04:55:00,DRY,8.35,-0.25,100.0,770.00,154.9
2019-03-06,05:00:00,DRY,9.10,-0.45,100.0,770.00,36.0
2019-03-06,05:05:00,DRY,,-1.30,98.5,770.00,12.6
2019-03-06,05:10:00,DRY,,-1.43,91.7,770.00,7.5
2019-03-06,05:15:00,DRY,,-1.20,96.0,770.00,6.5
2019-03-06,05:20:00,DRY,,-1.13,96.3,770.00,5.7
2019-03-06,05:25:00,DRY,,-0.95,100.0,770.00,7.5
2019-03-06,05:30:00,DRY,35.27,-0.53,100.0,770.00,11.4
2019-03-06,05:35:00,DRY,49.50,-0.45,100.0,770.00,11.8
2019-03-06,05:40:00,DRY,9.13,-0.47,100.0,770.00,14.3
2019-03-06,05:45:00,DRY,8.10,-0.30,100.0,770.50,31.6
2019-03-06,05:50:00,DRY,8.30,0.00,100.0,770.00,220.1
2019-03-06,05:55:00,DRY,9.45,0.05,100.0,770.50,471.8
2019-03-06,06:00:00,WET,9.00,0.13,100.0,770.33,421.2
2019-03-06,06:05:00,WET,49.25,0.20,100.0,770.00,285.8
2019-03-06,06:10:00,WET,36.87,0.50,100.0,770.67,196.1
2019-03-06,06:15:00,WET,10.70,0.75,100.0,770.50,188.7
2019-03-06,06:20:00,WET,8.77,0.73,100.0,770.33,182.2
2019-03-06,06:25:00,WET,8.30,0.30,100.0,771.00,194.1
2019-03-06,06:30:00,ICE,8.00,-0.23,100.0,771.00,190.5
2019-03-06,06:35:00,ICE,8.40,-0.45,100.0,771.00,156.9
2019-03-06,06:40:00,ICE,62.67,-0.93,100.0,771.00,74.4
2019-03-06,06:45:00,ICE,,-0.75,100.0,770.50,3.8
2019-03-06,06:50:00,ICE,,-0.77,100.0,770.67,3.0
2019-03-06,06:55:00,DRY,,-1.10,100.0,771.00,2.8
2019-03-06,07:00:00,DRY,,-1.13,100.0,771.00,2.5
2019-03-06,07:05:00,DRY,,-1.55,98.5,771.00,1.8
2019-03-06,07:10:00,DRY,,-1.37,96.7,771.00,2.3
2019-03-06,07:15:00,DRY,,-1.30,98.0,771.00,2.1
2019-03-06,07:20:00,DRY,,-1.33,90.7,771.00,2.8
2019-03-06,07:25:00,DRY,,-1.15,85.5,771.00,3.7
2019-03-06,07:30:00,DRY,,-1.27,85.7,771.00,5.7
2019-03-06,07:35:00,DRY,,-1.40,97.5,771.00,20.7
2019-03-06,07:40:00,DRY,,-1.47,97.7,771.00,11.7
2019-03-06,07:45:00,DRY,,-1.40,89.5,771.00,18.2
2019-03-06,07:50:00,DRY,,-1.27,91.3,771.00,20.6
2019-03-06,07:55:00,DRY,,-0.85,91.5,771.00,31.5
2019-03-06,08:00:00,DRY,,-0.93,86.0,771.00,28.9
2019-03-06,08:05:00,DRY,,-0.95,83.5,772.00,17.4
2019-03-06,08:10:00,DRY,,-0.73,83.0,772.00,18.5
2019-03-06,08:15:00,DRY,,0.05,78.5,772.00,19.6
2019-03-06,08:20:00,DRY,,-0.13,83.3,772.00,21.0
2019-03-06,08:25:00,DRY,,-0.10,86.5,772.00,22.6
2019-03-06,08:30:00,DRY,,-0.10,88.0,772.00,24.5
2019-03-06,08:35:00,DRY,10.15,0.25,92.5,772.00,178.6
2019-03-06,08:40:00,DRY,9.93,0.60,93.3,772.00,339.7
2019-03-06,08:45:00,DRY,8.10,0.80,92.0,772.00,454.1
2019-03-06,08:50:00,DRY,7.40,0.73,94.3,772.00,477.7
2019-03-06,08:55:00,DRY,8.75,0.35,97.5,772.00,425.4
2019-03-06,09:00:00,DRY,9.50,1.63,63.7,772.00,450.4
2019-03-06,09:05:00,DRY,11.45,2.25,45.5,772.00,461.8
2019-03-06,09:10:00,DRY,9.03,2.20,50.0,772.67,452.2
2019-03-06,09:15:00,DRY,7.30,2.20,51.5,772.00,450.9
2019-03-06,09:20:00,DRY,9.90,2.73,37.0,772.67,462.9
2019-03-06,09:25:00,DRY,8.45,2.35,49.0,773.00,470.1
2019-03-06,09:30:00,DRY,7.33,2.27,54.3,773.00,486.9
2019-03-06,09:35:00,DRY,7.10,2.25,55.0,773.00,507.4
2019-03-06,09:40:00,DRY,7.37,2.67,42.0,773.00,528.4
2019-03-06,09:45:00,DRY,10.30,2.95,37.0,773.00,552.0
2019-03-06,09:50:00,DRY,7.10,3.20,34.0,773.00,591.3
2019-03-06,09:55:00,DRY,7.45,3.10,36.5,773.00,626.3
2019-03-06,10:00:00,DRY,7.77,2.67,41.3,773.00,647.1
2019-03-06,10:05:00,DRY,6.65,2.20,54.0,773.00,664.6
2019-03-06,10:10:00,DRY,9.40,2.40,51.3,773.00,680.4
2019-03-06,10:15:00,DRY,7.55,2.00,66.5,773.00,696.3
2019-03-06,10:20:00,DRY,6.57,2.20,54.3,773.33,713.3
2019-03-06,10:25:00,DRY,6.60,1.50,74.0,773.00,731.2
2019-03-06,10:30:00,DRY,5.80,2.53,54.3,773.67,745.0
2019-03-06,10:35:00,DRY,3.55,1.70,71.0,774.00,758.5
2019-03-06,10:40:00,DRY,6.77,1.60,67.0,774.00,773.5
2019-03-06,10:45:00,DRY,6.75,2.45,52.0,774.00,785.4
2019-03-06,10:50:00,DRY,6.13,2.60,62.3,774.00,799.1
2019-03-06,10:55:00,DRY,3.65,2.65,46.0,774.00,811.7
2019-03-06,11:00:00,DRY,5.77,2.40,61.3,774.00,825.1
2019-03-06,11:05:00,DRY,7.65,3.50,36.5,774.00,839.3
2019-03-06,11:10:00,DRY,5.37,3.43,44.3,774.00,851.7
2019-03-06,11:15:00,DRY,4.80,3.50,31.0,774.00,865.5
2019-03-06,11:20:00,DRY,6.90,3.43,42.7,774.00,873.2
2019-03-06,11:25:00,DRY,5.75,3.75,35.5,774.00,876.4
2019-03-06,11:30:00,DRY,6.33,3.37,40.0,774.00,871.9
2019-03-06,11:35:00,DRY,5.90,3.70,28.5,774.00,868.0
2019-03-06,11:40:00,DRY,5.93,3.57,32.3,774.00,874.5
2019-03-06,11:45:00,DRY,5.35,3.65,38.5,774.00,884.0
2019-03-06,11:50:00,DRY,5.40,3.33,37.3,774.00,893.7
2019-03-06,11:55:00,DRY,5.10,3.30,42.5,774.00,902.5
2019-03-06,12:00:00,DRY,5.33,3.77,30.7,774.00,910.4
2019-03-06,12:05:00,DRY,5.45,3.65,50.0,774.00,919.5
2019-03-06,12:10:00,DRY,4.30,3.03,73.0,774.00,874.9
2019-03-06,12:15:00,DRY,4.35,2.85,68.5,774.00,930.6
2019-03-06,12:20:00,DRY,4.83,2.70,88.7,774.00,887.4
2019-03-06,12:25:00,DRY,3.55,3.00,96.5,774.00,866.5
2019-03-06,12:30:00,DRY,2.13,3.33,97.3,774.00,847.9
2019-03-06,12:35:00,DRY,3.15,3.20,90.5,774.00,981.3
2019-03-06,12:40:00,DRY,1.77,3.97,72.7,774.00,957.2
2019-03-06,12:45:00,DRY,2.35,5.20,33.0,774.00,962.5
2019-03-06,12:50:00,DRY,2.70,4.97,78.0,774.00,996.4
2019-03-06,12:55:00,DRY,1.80,3.85,94.0,774.00,938.5
2019-03-06,13:00:00,DRY,3.53,4.80,52.7,774.00,973.2
2019-03-06,13:05:00,DRY,3.75,6.25,32.0,774.00,975.0
2019-03-06,13:10:00,DRY,3.10,6.17,26.7,774.00,976.5
2019-03-06,13:15:00,DRY,2.20,6.40,22.0,774.00,978.1
2019-03-06,13:20:00,DRY,3.63,6.37,34.3,774.00,977.5
2019-03-06,13:25:00,DRY,2.55,5.90,49.5,774.00,977.0
2019-03-06,13:30:00,DRY,1.70,5.50,43.0,774.00,976.5
2019-03-06,13:35:00,DRY,2.30,4.20,67.0,774.00,975.4
2019-03-06,13:40:00,DRY,3.37,5.30,38.0,774.00,973.4
2019-03-06,13:45:00,DRY,2.90,5.60,68.5,774.00,970.9
2019-03-06,13:50:00,DRY,2.50,4.90,71.0,774.00,999.9
2019-03-06,13:55:00,DRY,3.35,4.75,47.0,774.00,963.0
2019-03-06,14:00:00,DRY,3.43,4.77,50.0,774.00,960.5
2019-03-06,14:05:00,DRY,4.55,4.25,77.5,774.00,926.7
2019-03-06,14:10:00,DRY,4.27,3.33,89.0,774.00,711.0
2019-03-06,14:15:00,DRY,3.90,3.00,85.0,774.00,948.2
2019-03-06,14:20:00,DRY,3.00,3.47,90.7,774.00,827.9
2019-03-06,14:25:00,DRY,3.75,3.65,81.0,774.00,904.5
2019-03-06,14:30:00,DRY,5.13,4.60,48.7,774.00,924.6
2019-03-06,14:35:00,DRY,5.35,5.05,38.0,774.00,917.0